Location: Newark
(42.7133°N, 87.7910°W)
Time: 18:41:55
(UTC+00:00)

Courier 1B - All Passes

Search period start: 22 September 2019 00:00
Search period end: 02 October 2019 00:00
Orbit: 962 x 1209 km, 28.3° (Epoch: 21 September)

Date Brightness Start Highest point End Pass type
(mag) Time Alt. Az. Time Alt. Az. Time Alt. Az.
22 Sep - 10:04:08 10° S 10:06:37 12° SSE 10:09:09 10° SE visible
22 Sep - 11:54:26 10° SW 11:59:31 23° S 12:04:50 10° ESE daylight
22 Sep - 13:47:14 10° SW 13:52:41 24° S 13:58:22 10° SE daylight
22 Sep - 15:41:44 10° SW 15:45:50 16° SSW 15:50:02 10° SSE daylight
23 Sep - 11:01:20 10° SSW 11:06:00 20° SSE 11:10:49 10° ESE visible
23 Sep - 12:53:43 10° SW 12:59:05 24° S 13:04:42 10° SE daylight
23 Sep - 14:47:38 10° WSW 14:52:14 18° SSW 14:57:00 10° SSE daylight
24 Sep - 10:08:27 10° SSW 10:12:30 17° SSE 10:16:41 10° SE visible
24 Sep - 12:00:18 10° SW 12:05:31 24° S 12:10:58 10° SE daylight
24 Sep - 13:53:46 10° WSW 13:58:39 20° SSW 14:03:44 10° SSE daylight
25 Sep - 09:15:52 10° S 09:19:03 14° SSE 09:22:17 10° SE visible
25 Sep - 11:06:58 10° SW 11:11:58 23° S 11:17:09 10° SE visible
25 Sep - 13:00:04 10° SW 13:05:05 22° S 13:10:19 10° SE daylight
25 Sep - 14:55:20 10° SW 14:58:08 13° SSW 15:00:59 10° S daylight
26 Sep - 08:24:06 10° S 08:25:37 11° SSE 08:27:09 10° SE visible
26 Sep - 10:13:46 10° SW 10:18:28 21° S 10:23:18 10° SE visible
26 Sep - 12:06:28 10° SW 12:11:32 23° S 12:16:47 10° SE daylight
26 Sep - 14:00:52 10° SW 14:04:35 15° SSW 14:08:25 10° SSE daylight
27 Sep - 09:20:42 10° SSW 09:24:59 18° SSE 09:29:21 10° SE visible
27 Sep - 11:12:59 10° SW 11:18:00 23° S 11:23:10 10° SE visible
27 Sep - 13:06:50 10° SW 13:11:04 17° SSW 13:15:26 10° SSE daylight
28 Sep - 08:27:50 10° SSW 08:31:31 16° SSE 08:35:16 10° SE visible
28 Sep - 10:19:35 10° SW 10:24:29 23° S 10:29:31 10° SE visible
28 Sep - 12:13:01 10° SW 12:17:32 19° SSW 12:22:12 10° SSE daylight
29 Sep - 07:35:17 10° S 07:38:05 13° SSE 07:40:53 10° SE visible
29 Sep - 09:26:15 10° SW 09:30:59 22° S 09:35:48 10° SE visible
29 Sep - 11:19:19 10° SW 11:24:01 21° S 11:28:52 10° SE visible
29 Sep - 13:14:38 10° SW 13:16:59 12° SSW 13:19:22 10° S daylight
30 Sep - 06:43:58 10° SSE 06:44:39 10° SSE 06:45:21 10° SSE night (unlit)
30 Sep - 08:33:00 10° SW 08:37:31 20° S 08:42:02 10° SE visible
30 Sep - 10:25:43 10° SW 10:30:31 22° S 10:35:25 10° SE visible
30 Sep - 12:20:08 10° SW 12:23:30 14° SSW 12:26:56 10° SSE daylight
01 Oct - 07:39:54 10° SSW 07:44:02 18° SSE 07:48:10 10° SE visible
01 Oct - 09:32:12 10° SW 09:37:01 22° S 09:41:55 10° SE visible
01 Oct - 11:26:04 10° SW 11:30:01 17° SSW 11:34:03 10° SSE daylight
